Regional Weather Roundup
Issued by NWS

Home | Current Version | Previous Version | Text Only | Print | Product List | Glossary Off
Versions: 1 2 3 4 5 6 7 8 9 10 11 12 13 14 15 16 17 18 19 20 21 22 23 24 25 26 27 28 29 30 31 32 33 34 35 36 37 38 39 40 41 42 43 44 45 46 47 48 49 50

000
ASUS43 KDMX 201601
RWRIA

WEATHER ROUNDUP FOR IOWA
NATIONAL WEATHER SERVICE DES MOINES IA
1100 AM CDT FRI APR 20 2018

NOTE: "FAIR" INDICATES FEW OR NO CLOUDS BELOW 12,000 FEET WITH NO
SIGNIFICANT WEATHER AND/OR OBSTRUCTIONS TO VISIBILITY.

* - THESE STATIONS ARE NOT NWS STATIONS...THUS NOT UNDER NWS
QUALITY CONTROL.  THEY ALSO DO NOT REPORT WEATHER SUCH
AS PRECIPITATION OR FOG.

IAZ001>003-012>014-020>022-031>034-043>046-201700-
   NORTHWEST IOWA

CITY           SKY/WX    TMP DP  RH WIND       PRES   REMARKS
CARROLL *      CLOUDY    48  34  57 SE8       30.45S
CHEROKEE *     CLOUDY    43  32  66 SE5       30.45F
DENISON *      CLOUDY    50  32  50 S14       30.44F
LE MARS *      PTSUNNY   46  34  61 SE10      30.43F
ORANGE CITY *  CLOUDY    41  34  75 E5        30.44S
SHELDON *      CLOUDY    43  32  65 SE12      30.43S
SIOUX CITY     CLOUDY    44  31  60 SE6       30.43F
SPENCER        MOSUNNY   39  26  59 S9        30.46S WCI  33
STORM LAKE *   CLOUDY    41  32  70 SE8       30.45S
$$

IAZ055>058-069>071-079>083-090>094-201700-
   SOUTHWEST IOWA

CITY           SKY/WX    TMP DP  RH WIND       PRES   REMARKS
ATLANTIC *     CLOUDY    52  30  43 S10       30.43F
AUDUBON *      CLOUDY    52  30  43 CALM      30.44F
CLARINDA *     PTSUNNY   54  28  37 S12G18    30.45F
COUNCIL BLFS * CLOUDY    52  32  46 S16       30.41F
CRESTON *      PTSUNNY   54  28  37 S13       30.45F
HARLAN  *      CLOUDY    52  32  46 S13       30.46F
LAMONI         MOSUNNY   53  27  36 SE12      30.45F
RED OAK *      CLOUDY    55  32  41 SE13      30.43F
SHENANDOAH *   MOSUNNY   54  32  43 SE13G20   30.43S
$$

IAZ047>049-059>061-072>074-084-201700-
   CENTRAL IOWA

CITY           SKY/WX    TMP DP  RH WIND       PRES   REMARKS
AMES           CLOUDY    50  33  52 S10       30.48F
ANKENY *       CLOUDY    52  30  43 S6G13     30.49F
BOONE *        CLOUDY    50  34  53 S9        30.46F
CHARITON *     MOSUNNY   52  28  40 SE10      30.46F
DES MOINES     CLOUDY    52  30  43 SE8       30.48F
GRINNELL*      CLOUDY    50  29  45 S7        30.50F
KNOXVILLE *    MOSUNNY   52  27  37 SE9G15    30.47F
MARSHALLTOWN   MOSUNNY   49  33  54 S9        30.48F
NEWTON *       CLOUDY    52  30  43 S9G16     30.49F
PELLA *        CLOUDY    53  29  40 S7        30.50F
$$

IAZ004>006-015-016-023>025-035-036-201700-
   NORTH CENTRAL IOWA

CITY           SKY/WX    TMP DP  RH WIND       PRES   REMARKS
ALGONA *       CLOUDY    39  25  56 SE9       30.48S WCI  33
CLARION *      CLOUDY    41  32  70 MISG      30.48F
ESTHERVILLE    MOSUNNY   32  25  75 SE7       30.47S WCI  26
FORT DODGE *   CLOUDY    47  30  51 SE8       30.47F
MASON CITY     CLOUDY    37  28  70 CALM      30.51F
FOREST CITY *  FAIR      37  27  65 E6        30.49F WCI  33
WEBSTER CITY * CLOUDY    48  36  61 S12       30.45F
IOWA FALLS *   FAIR      48  34  58 SE10      30.49F
$$

IAZ007>011-017>019-026>030-037>042-050>054-066-201700-
   NORTHEAST IOWA

CITY           SKY/WX    TMP DP  RH WIND       PRES   REMARKS
CEDAR RAPIDS   FAIR      52  28  39 SE6       30.50S
CHARLES CITY * FAIR      41  27  56 CALM      30.51F
CLINTON *      FAIR      51  27  39 VRB3      30.53S
DECORAH *      FAIR      43  23  45 S5        30.50S
DUBUQUE        FAIR      49  25  39 VRB3      30.52S
MONTICELLO *   FAIR      50  27  40 CALM      30.52S
OELWEIN *      FAIR      46  30  53 CALM      30.52S
WATERLOO       FAIR      45  27  49 SE3       30.51S
$$

IAZ064-065-067-068-078-201700-
   EAST CENTRAL IOWA

CITY           SKY/WX    TMP DP  RH WIND       PRES   REMARKS
DAVENPORT      FAIR      52  25  35 E6        30.54S
IOWA CITY      FAIR      51  28  41 S6        30.53S
MT. PLEASANT * SUNNY     54  27  35 E3        30.51F
MUSCATINE *    FAIR      54  27  35 VRB6      30.53S
QUAD CITIES    FAIR      54  28  36 NE6       30.52S
$$

IAZ062-063-075>077-085>089-095>099-201700-
   SOUTHEAST IOWA

CITY           SKY/WX    TMP DP  RH WIND       PRES   REMARKS
BURLINGTON     SUNNY     53  26  35 CALM      30.51F
FAIRFIELD *    SUNNY     54  27  35 S7        30.50F
FORT MADISON * SUNNY     54  28  37 SE5       30.52S
KEOKUK *       SUNNY     54  28  37 VRB6      30.50F
OSKALOOSA *    FAIR      53  26  36 S9        30.49F
CENTERVILLE *    N/A     54  27  35 SE7       30.49F
OTTUMWA        SUNNY     53  28  38 SE8       30.49F
WASHINGTON *   SUNNY     54  27  35 VRB5      30.52F
$$

ABBREVIATIONS USED IN REMARKS
   TC - TEMPERATURES IN CELSIUS
  WCI - WIND CHILL INDEX
   HX - HEAT INDEX
  VSB - VISIBILITY
$$





USA.gov is the U.S. government's official web portal to all federal, state and local government web resources and services.